Flag for Germany Weather past 2 weeks in Soest, North Rhine-Westphalia, Germany

Now
32 °F

Snow. Partly sunny.


Feels Like: 22 °F
Forecast: 23 / 30 °F
Wind: 15 mph from East

Location: Dortmund / Wickede

Current Time: Dec 27, 2014 at 2:07:45 PM

Latest Report: Dec 27, 2014 at 1:20 PM


Visibility: 1 mi

Pressure: 29.47 "Hg

Humidity: 93%

Dew point: 30 °F

Location of SoestLocation

Historic Weather in Soest — Graph

°F

Soest temperature yesterday

Maximum temperature yesterday: 39 °F (at 1:20 PM)
Minimum temperature yesterday: 32 °F (at 4:50 PM)
Average temperature yesterday: 35 °F

Past Weeks' High & Low Weather Summary

 TemperatureHumidityPressure
High54 °F (Dec 18, 5:20 PM)93% (Dec 13, 10:20 PM)30.39 "Hg (Dec 13, 10:20 PM)
Low32 °F (Dec 14, 10:50 PM)65% (Dec 15, 5:50 AM)29.39 "Hg (Dec 12, 12:50 PM)
Average43 °F83%29.94 "Hg
* Reported Dec 12 12:20 PM — Dec 27 12:50 PM, Soest, Weather by CustomWeather, © 2014

Note: Actual official high and low records may vary slightly from our data, if they occured in-between our weather recording intervals... More about our weather records

Advertising

Soest weather history for previous 24 hours

 ConditionsComfort  
Time TempWeatherWind HumidityBarometerVisibility
12:50 PM
Dec 27
32 °FLight snow. Partly sunny.14 mph93%29.47 "Hg2 mi
12:20 PM32 °FLight snow. Partly sunny.15 mph93%29.47 "Hg2 mi
11:50 AM32 °FLight snow. Partly sunny.14 mph93%29.50 "Hg1 mi
11:20 AM32 °FLight snow. Partly sunny.14 mph93%29.50 "Hg1 mi
10:50 AM32 °FSnow. Partly sunny.15 mph93%29.50 "Hg1 mi
10:20 AM32 °FSnow. Partly sunny.15 mph93%29.50 "Hg1 mi
9:50 AM32 °FSnow. Partly sunny.14 mph93%29.53 "Hg1 mi
9:20 AM34 °FLight snow. Partly sunny.14 mph87%29.53 "Hg1 mi
8:50 AM34 °FLight snow. Broken clouds.15 mph81%29.53 "Hg2 mi
8:20 AM36 °FLight snow. Passing clouds.16 mph75%29.56 "Hg6 mi
7:50 AM36 °FPassing clouds.15 mph75%29.56 "HgN/A
7:20 AM36 °FPartly cloudy.15 mph75%29.59 "HgN/A
6:50 AM36 °FPartly cloudy.16 mph75%29.62 "HgN/A
6:20 AM36 °FPassing clouds.17 mph70%29.65 "HgN/A
5:50 AM36 °FClear.16 mph75%29.68 "Hg10 mi
5:20 AM36 °FClear.15 mph75%29.74 "Hg10 mi
8:50 PM
Dec 26
34 °FClear.9 mph87%30.21 "Hg10 mi
8:20 PM32 °FPassing clouds.9 mph93%30.21 "HgN/A
7:50 PM34 °FPassing clouds.8 mph87%30.24 "HgN/A
7:20 PM34 °FPassing clouds.9 mph87%30.24 "HgN/A
6:50 PM34 °FPassing clouds.9 mph87%30.27 "HgN/A
6:20 PM34 °FClear.8 mph87%30.27 "Hg10 mi
5:50 PM32 °FClear.7 mph87%30.27 "Hg10 mi
5:20 PM34 °FClear.7 mph87%30.30 "Hg10 mi
4:50 PM32 °FClear.8 mph87%30.30 "Hg10 mi
4:20 PM34 °FSunny.8 mph87%30.30 "Hg10 mi
3:50 PM36 °FSunny.8 mph81%30.30 "Hg10 mi
3:20 PM36 °FPassing clouds.8 mph87%30.33 "HgN/A
2:50 PM37 °FPassing clouds.7 mph81%30.33 "HgN/A
2:20 PM37 °FScattered clouds.6 mph81%30.33 "HgN/A
Weather by CustomWeather, © 2014

See weather overviewHow to use our weather pages